Location: Gälforsberget
(66.6500°N, 22.4167°E)
Time: 16:57:10
(UTC+00:00)

Cosmos 1697 Rocket - Pass Details

Date: 11 April 2026
Orbit: 832 x 842 km, 71.0° (Epoch: 16 May)

Event Time Altitude Azimuth Distance (km) Brightness Sun altitude
Rises 21:27:38 0° 297° (WNW) 3,409 6.5 -13.9°
Reaches altitude 10° 21:30:06 10° 300° (WNW) 2,471 5.8 -14.0°
Maximum altitude 21:35:46 71° 25° (NNE) 893 3.0 -14.1°
Drops below altitude 10° 21:41:25 10° 110° (ESE) 2,460 4.8 -14.2°
Enters shadow 21:43:24 - 112° (ESE) 3,212 5.4 -14.3°
